Terminal Aerodrome Forecast
Issued by NWS

Home | Current Version | Previous Version | Text Only | Print | Product List | Glossary On
Versions: 1 2 3 4 5 6 7 8 9 10 11 12 13 14
922
FTUS46 KMTR 261738
TAFMRY
TAF
KMRY 261738Z 2618/2718 VRB04KT P6SM SCT050
     FM261900 28006KT P6SM SCT050
     FM270300 22004KT P6SM FEW030
     FM270500 17005KT P6SM VCSH BKN060=

USA.gov is the U.S. government's official web portal to all federal, state and local government web resources and services.